Location: ??????
(41.3747°N, 22.5491°E)
Time: 04:44:56
(UTC+00:00)

Sich 1 - Pass Details

Date: 01 December 2020
Orbit: 593 x 626 km, 82.5° (Epoch: 20 January)

Event Time Altitude Azimuth Distance (km) Brightness Sun altitude
Rises 15:25:50 0° 352° (N) 2,893 6.3 -5.0°
Reaches altitude 10° 15:28:05 10° 353° (N) 1,978 5.5 -5.4°
Maximum altitude 15:32:28 87° 79° (E) 614 3.0 -6.1°
Drops below altitude 10° 15:36:46 10° 173° (S) 1,942 5.8 -6.8°
Sets 15:38:57 0° 173° (S) 2,835 6.7 -7.2°
